Wetterdaten: Freitag, 23.04.2010
Datum Zeit Temp. A. Feuchte A. Luftdruck Regen Wind Richtung Richtung Sonnenschein UV Solar Windben
23.04.2010 00:00 2,8 C 77 % 1015,5 hPa 0,0 mm 0,0 km/h (0 Bft) N 0 0 min 0 UV-I 0 W/m 0,0 km/h (0 Bft)
23.04.2010 00:10 2,6 C 78 % 1015,4 hPa 0,0 mm 0,0 km/h (0 Bft) NO 45 0 min 0 UV-I 0 W/m 1,6 km/h (1 Bft)
23.04.2010 00:20 2,4 C 78 % 1015,4 hPa 0,0 mm 0,0 km/h (0 Bft) N 0 0 min 0 UV-I 0 W/m 0,0 km/h (0 Bft)
23.04.2010 00:30 2,4 C 78 % 1015,4 hPa 0,0 mm 0,0 km/h (0 Bft) N 0 0 min 0 UV-I 0 W/m 0,0 km/h (0 Bft)
23.04.2010 00:40 2,3 C 78 % 1015,5 hPa 0,0 mm 0,0 km/h (0 Bft) N 0 0 min 0 UV-I 0 W/m 0,0 km/h (0 Bft)
23.04.2010 00:50 2,0 C 80 % 1015,5 hPa 0,0 mm 0,0 km/h (0 Bft) N 0 0 min 0 UV-I 0 W/m 0,0 km/h (0 Bft)
23.04.2010 01:00 1,9 C 79 % 1015,5 hPa 0,0 mm 0,0 km/h (0 Bft) N 0 0 min 0 UV-I 0 W/m 0,0 km/h (0 Bft)
23.04.2010 01:10 1,8 C 80 % 1015,5 hPa 0,0 mm 0,0 km/h (0 Bft) N 0 0 min 0 UV-I 0 W/m 0,0 km/h (0 Bft)
23.04.2010 01:20 1,7 C 80 % 1015,6 hPa 0,0 mm 0,0 km/h (0 Bft) N 0 0 min 0 UV-I 0 W/m 0,0 km/h (0 Bft)
23.04.2010 01:30 1,8 C 79 % 1015,5 hPa 0,0 mm 0,0 km/h (0 Bft) N 0 0 min 0 UV-I 0 W/m 0,0 km/h (0 Bft)
23.04.2010 01:40 1,7 C 78 % 1015,5 hPa 0,0 mm 0,0 km/h (0 Bft) N 0 0 min 0 UV-I 0 W/m 0,0 km/h (0 Bft)
23.04.2010 01:50 1,4 C 79 % 1015,5 hPa 0,0 mm 0,0 km/h (0 Bft) N 0 0 min 0 UV-I 0 W/m 0,0 km/h (0 Bft)
23.04.2010 02:00 1,3 C 80 % 1015,4 hPa 0,0 mm 0,0 km/h (0 Bft) N 0 0 min 0 UV-I 0 W/m 0,0 km/h (0 Bft)
23.04.2010 02:10 1,1 C 81 % 1015,4 hPa 0,0 mm 0,0 km/h (0 Bft) N 0 0 min 0 UV-I 0 W/m 0,0 km/h (0 Bft)
23.04.2010 02:20 1,0 C 82 % 1015,4 hPa 0,0 mm 0,0 km/h (0 Bft) N-NO 22 0 min 0 UV-I 0 W/m 6,4 km/h (2 Bft)
23.04.2010 02:30 1,1 C 83 % 1015,4 hPa 0,0 mm 0,0 km/h (0 Bft) N-NO 22 0 min 0 UV-I 0 W/m 3,2 km/h (1 Bft)
23.04.2010 02:40 0,9 C 83 % 1015,4 hPa 0,0 mm 0,0 km/h (0 Bft) N 0 0 min 0 UV-I 0 W/m 0,0 km/h (0 Bft)
23.04.2010 02:50 0,7 C 84 % 1015,4 hPa 0,0 mm 0,0 km/h (0 Bft) N-NO 22 0 min 0 UV-I 0 W/m 1,6 km/h (1 Bft)
23.04.2010 03:00 0,7 C 84 % 1015,4 hPa 0,0 mm 0,0 km/h (0 Bft) N-NO 22 0 min 0 UV-I 0 W/m 1,6 km/h (1 Bft)
23.04.2010 03:10 0,5 C 84 % 1015,4 hPa 0,0 mm 0,0 km/h (0 Bft) N 0 0 min 0 UV-I 0 W/m 0,0 km/h (0 Bft)
23.04.2010 03:20 0,5 C 85 % 1015,2 hPa 0,0 mm 0,0 km/h (0 Bft) N 0 0 min 0 UV-I 0 W/m 0,0 km/h (0 Bft)
23.04.2010 03:30 0,6 C 84 % 1015,2 hPa 0,0 mm 0,0 km/h (0 Bft) N 0 0 min 0 UV-I 0 W/m 0,0 km/h (0 Bft)
23.04.2010 03:40 0,3 C 84 % 1015,4 hPa 0,0 mm 0,0 km/h (0 Bft) N 0 0 min 0 UV-I 0 W/m 0,0 km/h (0 Bft)
23.04.2010 03:50 0,0 C 85 % 1015,3 hPa 0,0 mm 0,0 km/h (0 Bft) N-NO 22 0 min 0 UV-I 0 W/m 1,6 km/h (1 Bft)
23.04.2010 04:00 -0,2 C 86 % 1015,3 hPa 0,0 mm 0,0 km/h (0 Bft) N 0 0 min 0 UV-I 0 W/m 0,0 km/h (0 Bft)
23.04.2010 04:10 -0,3 C 86 % 1015,3 hPa 0,0 mm 0,0 km/h (0 Bft) N 0 0 min 0 UV-I 0 W/m 0,0 km/h (0 Bft)
23.04.2010 04:20 -0,4 C 87 % 1015,4 hPa 0,0 mm 0,0 km/h (0 Bft) N 0 0 min 0 UV-I 0 W/m 0,0 km/h (0 Bft)
23.04.2010 04:30 -0,5 C 87 % 1015,5 hPa 0,0 mm 0,0 km/h (0 Bft) N-NO 22 0 min 0 UV-I 0 W/m 1,6 km/h (1 Bft)
23.04.2010 04:40 -0,6 C 87 % 1015,4 hPa 0,0 mm 0,0 km/h (0 Bft) N 0 0 min 0 UV-I 0 W/m 0,0 km/h (0 Bft)
23.04.2010 04:50 -0,7 C 87 % 1015,4 hPa 0,0 mm 0,0 km/h (0 Bft) N-NO 22 0 min 0 UV-I 0 W/m 1,6 km/h (1 Bft)
23.04.2010 05:00 -0,8 C 87 % 1015,4 hPa 0,0 mm 0,0 km/h (0 Bft) N 0 0 min 0 UV-I 0 W/m 0,0 km/h (0 Bft)
23.04.2010 05:10 -0,8 C 87 % 1015,4 hPa 0,0 mm 0,0 km/h (0 Bft) N 0 0 min 0 UV-I 0 W/m 0,0 km/h (0 Bft)
23.04.2010 05:20 -0,8 C 86 % 1015,4 hPa 0,0 mm 0,0 km/h (0 Bft) N 0 0 min 0 UV-I 0 W/m 0,0 km/h (0 Bft)
23.04.2010 05:30 -0,9 C 87 % 1015,4 hPa 0,0 mm 0,0 km/h (0 Bft) N 0 0 min 0 UV-I 0 W/m 0,0 km/h (0 Bft)
23.04.2010 05:40 -1,1 C 87 % 1015,4 hPa 0,0 mm 0,0 km/h (0 Bft) N 0 0 min 0 UV-I 0 W/m 0,0 km/h (0 Bft)
23.04.2010 05:50 -1,1 C 87 % 1015,4 hPa 0,0 mm 0,0 km/h (0 Bft) N 0 0 min 0 UV-I 0 W/m 0,0 km/h (0 Bft)
23.04.2010 06:00 -1,2 C 87 % 1015,4 hPa 0,0 mm 0,0 km/h (0 Bft) N 0 0 min 0 UV-I 0 W/m 0,0 km/h (0 Bft)
23.04.2010 06:10 -1,2 C 87 % 1015,5 hPa 0,0 mm 0,0 km/h (0 Bft) N 0 0 min 0 UV-I 0 W/m 0,0 km/h (0 Bft)
23.04.2010 06:20 -1,2 C 87 % 1015,4 hPa 0,0 mm 0,0 km/h (0 Bft) N 0 0 min 0 UV-I 5 W/m 0,0 km/h (0 Bft)
23.04.2010 06:30 -1,3 C 87 % 1015,5 hPa 0,0 mm 0,0 km/h (0 Bft) N 0 0 min 0 UV-I 11 W/m 0,0 km/h (0 Bft)
23.04.2010 06:40 -1,2 C 88 % 1015,6 hPa 0,0 mm 0,0 km/h (0 Bft) N 0 0 min 0 UV-I 16 W/m 0,0 km/h (0 Bft)
23.04.2010 06:50 -0,9 C 87 % 1015,6 hPa 0,0 mm 0,0 km/h (0 Bft) N 0 0 min 0 UV-I 30 W/m 0,0 km/h (0 Bft)
23.04.2010 07:00 -0,8 C 88 % 1015,7 hPa 0,0 mm 0,0 km/h (0 Bft) N 0 0 min 0 UV-I 39 W/m 0,0 km/h (0 Bft)
23.04.2010 07:10 -0,6 C 87 % 1015,8 hPa 0,0 mm 0,0 km/h (0 Bft) N 0 0 min 0 UV-I 47 W/m 0,0 km/h (0 Bft)
23.04.2010 07:20 -0,3 C 87 % 1015,8 hPa 0,0 mm 0,0 km/h (0 Bft) N 0 0 min 0 UV-I 77 W/m 0,0 km/h (0 Bft)
23.04.2010 07:30 0,1 C 86 % 1015,8 hPa 0,0 mm 0,0 km/h (0 Bft) N 0 10 min 0 UV-I 121 W/m 0,0 km/h (0 Bft)
23.04.2010 07:40 0,6 C 85 % 1015,9 hPa 0,0 mm 0,0 km/h (0 Bft) N 0 10 min 1 UV-I 146 W/m 0,0 km/h (0 Bft)
23.04.2010 07:50 0,9 C 83 % 1015,9 hPa 0,0 mm 0,0 km/h (0 Bft) N 0 10 min 1 UV-I 172 W/m 0,0 km/h (0 Bft)
23.04.2010 08:00 1,9 C 81 % 1016,0 hPa 0,0 mm 0,0 km/h (0 Bft) N-NO 25 10 min 1 UV-I 197 W/m 0,0 km/h (0 Bft)
23.04.2010 08:10 2,2 C 78 % 1016,1 hPa 0,0 mm 0,0 km/h (0 Bft) N 0 10 min 1 UV-I 223 W/m 0,0 km/h (0 Bft)
23.04.2010 08:20 2,7 C 77 % 1016,0 hPa 0,0 mm 0,0 km/h (0 Bft) N 0 10 min 1 UV-I 260 W/m 0,0 km/h (0 Bft)
23.04.2010 08:30 3,3 C 75 % 1016,1 hPa 0,0 mm 0,0 km/h (0 Bft) N 0 10 min 1 UV-I 287 W/m 0,0 km/h (0 Bft)
23.04.2010 08:40 3,8 C 72 % 1016,1 hPa 0,0 mm 0,0 km/h (0 Bft) N-NO 22 10 min 1 UV-I 311 W/m 1,6 km/h (1 Bft)
23.04.2010 08:50 4,3 C 70 % 1016,1 hPa 0,0 mm 0,0 km/h (0 Bft) N 0 10 min 1 UV-I 343 W/m 0,0 km/h (0 Bft)
23.04.2010 09:00 4,9 C 68 % 1016,1 hPa 0,0 mm 0,0 km/h (0 Bft) NO 45 10 min 1 UV-I 367 W/m 1,6 km/h (1 Bft)
23.04.2010 09:10 5,7 C 67 % 1016,0 hPa 0,0 mm 0,0 km/h (0 Bft) NO 45 10 min 1 UV-I 399 W/m 1,6 km/h (1 Bft)
23.04.2010 09:20 6,2 C 63 % 1016,0 hPa 0,0 mm 0,0 km/h (0 Bft) NO 45 10 min 2 UV-I 424 W/m 1,6 km/h (1 Bft)
23.04.2010 09:30 6,8 C 62 % 1016,1 hPa 0,0 mm 0,0 km/h (0 Bft) NO 45 10 min 2 UV-I 468 W/m 1,6 km/h (1 Bft)
23.04.2010 09:40 7,3 C 62 % 1016,0 hPa 0,0 mm 0,0 km/h (0 Bft) N 360 10 min 2 UV-I 490 W/m 3,2 km/h (1 Bft)
23.04.2010 09:50 7,9 C 60 % 1015,9 hPa 0,0 mm 0,0 km/h (0 Bft) N 360 10 min 2 UV-I 476 W/m 4,8 km/h (1 Bft)
23.04.2010 10:00 8,5 C 58 % 1015,9 hPa 0,0 mm 0,0 km/h (0 Bft) N 360 10 min 2 UV-I 545 W/m 6,4 km/h (2 Bft)
23.04.2010 10:10 9,1 C 58 % 1016,0 hPa 0,0 mm 0,0 km/h (0 Bft) N 360 10 min 2 UV-I 563 W/m 4,8 km/h (1 Bft)
23.04.2010 10:20 9,6 C 52 % 1015,8 hPa 0,0 mm 1,6 km/h (1 Bft) N 360 10 min 3 UV-I 585 W/m 6,4 km/h (2 Bft)
23.04.2010 10:30 10,0 C 50 % 1015,8 hPa 0,0 mm 1,6 km/h (1 Bft) N 360 10 min 3 UV-I 612 W/m 8,0 km/h (2 Bft)
23.04.2010 10:40 10,3 C 49 % 1015,9 hPa 0,0 mm 1,6 km/h (1 Bft) N-NO 22 10 min 3 UV-I 640 W/m 6,4 km/h (2 Bft)
23.04.2010 10:50 10,8 C 47 % 1015,9 hPa 0,0 mm 1,6 km/h (1 Bft) O-NO 67 10 min 3 UV-I 668 W/m 6,4 km/h (2 Bft)
23.04.2010 11:00 11,2 C 47 % 1015,8 hPa 0,0 mm 1,6 km/h (1 Bft) NO 45 10 min 3 UV-I 679 W/m 8,0 km/h (2 Bft)
23.04.2010 11:10 11,3 C 46 % 1015,8 hPa 0,0 mm 1,6 km/h (1 Bft) NO 45 10 min 3 UV-I 689 W/m 8,0 km/h (2 Bft)
23.04.2010 11:20 11,7 C 45 % 1015,7 hPa 0,0 mm 1,6 km/h (1 Bft) O 90 10 min 4 UV-I 715 W/m 8,0 km/h (2 Bft)
23.04.2010 11:30 12,1 C 44 % 1015,8 hPa 0,0 mm 1,6 km/h (1 Bft) O 90 10 min 4 UV-I 740 W/m 9,7 km/h (2 Bft)
23.04.2010 11:40 12,2 C 45 % 1015,8 hPa 0,0 mm 1,6 km/h (1 Bft) O 90 10 min 4 UV-I 770 W/m 9,7 km/h (2 Bft)
23.04.2010 11:50 12,1 C 46 % 1015,8 hPa 0,0 mm 1,6 km/h (1 Bft) O 90 10 min 4 UV-I 772 W/m 14,5 km/h (3 Bft)
23.04.2010 12:00 12,9 C 44 % 1015,7 hPa 0,0 mm 1,6 km/h (1 Bft) O 90 10 min 4 UV-I 747 W/m 6,4 km/h (2 Bft)
23.04.2010 12:10 12,8 C 42 % 1015,7 hPa 0,0 mm 1,6 km/h (1 Bft) S 180 10 min 4 UV-I 795 W/m 4,8 km/h (1 Bft)
23.04.2010 12:20 12,8 C 42 % 1015,7 hPa 0,0 mm 0,0 km/h (0 Bft) W-SW 247 10 min 4 UV-I 816 W/m 3,2 km/h (1 Bft)
23.04.2010 12:30 13,8 C 40 % 1015,7 hPa 0,0 mm 3,2 km/h (1 Bft) SO 135 10 min 5 UV-I 819 W/m 11,3 km/h (2 Bft)
23.04.2010 12:40 14,0 C 38 % 1015,5 hPa 0,0 mm 1,6 km/h (1 Bft) S-SO 157 10 min 5 UV-I 858 W/m 8,0 km/h (2 Bft)
23.04.2010 12:50 13,1 C 40 % 1015,6 hPa 0,0 mm 3,2 km/h (1 Bft) N-NO 22 10 min 5 UV-I 853 W/m 11,3 km/h (2 Bft)
23.04.2010 13:00 13,3 C 41 % 1015,5 hPa 0,0 mm 1,6 km/h (1 Bft) N-NO 22 10 min 5 UV-I 837 W/m 11,3 km/h (2 Bft)
23.04.2010 13:10 13,3 C 39 % 1015,5 hPa 0,0 mm 1,6 km/h (1 Bft) N-NO 22 10 min 5 UV-I 837 W/m 6,4 km/h (2 Bft)
23.04.2010 13:20 13,7 C 41 % 1015,3 hPa 0,0 mm 1,6 km/h (1 Bft) N 360 10 min 5 UV-I 853 W/m 6,4 km/h (2 Bft)
23.04.2010 13:30 14,0 C 39 % 1015,3 hPa 0,0 mm 1,6 km/h (1 Bft) W-SW 247 10 min 5 UV-I 849 W/m 6,4 km/h (2 Bft)
23.04.2010 13:40 13,6 C 39 % 1015,3 hPa 0,0 mm 3,2 km/h (1 Bft) W-NW 292 10 min 5 UV-I 853 W/m 11,3 km/h (2 Bft)
23.04.2010 13:50 13,9 C 40 % 1015,2 hPa 0,0 mm 1,6 km/h (1 Bft) N 360 10 min 5 UV-I 861 W/m 8,0 km/h (2 Bft)
23.04.2010 14:00 14,9 C 36 % 1015,2 hPa 0,0 mm 1,6 km/h (1 Bft) O-NO 67 10 min 5 UV-I 854 W/m 8,0 km/h (2 Bft)
23.04.2010 14:10 15,0 C 38 % 1015,2 hPa 0,0 mm 1,6 km/h (1 Bft) O-NO 67 10 min 5 UV-I 851 W/m 8,0 km/h (2 Bft)
23.04.2010 14:20 15,0 C 36 % 1015,2 hPa 0,0 mm 3,2 km/h (1 Bft) W-SW 247 10 min 5 UV-I 851 W/m 14,5 km/h (3 Bft)
23.04.2010 14:30 14,7 C 35 % 1015,2 hPa 0,0 mm 3,2 km/h (1 Bft) W 270 10 min 5 UV-I 844 W/m 9,7 km/h (2 Bft)
23.04.2010 14:40 14,6 C 37 % 1015,2 hPa 0,0 mm 1,6 km/h (1 Bft) W-SW 247 10 min 4 UV-I 833 W/m 8,0 km/h (2 Bft)
23.04.2010 14:50 14,8 C 37 % 1015,1 hPa 0,0 mm 3,2 km/h (1 Bft) N-NO 22 10 min 4 UV-I 824 W/m 8,0 km/h (2 Bft)
23.04.2010 15:00 15,3 C 37 % 1015,2 hPa 0,0 mm 3,2 km/h (1 Bft) NW 315 10 min 4 UV-I 810 W/m 8,0 km/h (2 Bft)
23.04.2010 15:10 15,4 C 35 % 1015,1 hPa 0,0 mm 1,6 km/h (1 Bft) W-NW 292 10 min 4 UV-I 803 W/m 8,0 km/h (2 Bft)
23.04.2010 15:20 15,1 C 33 % 1015,2 hPa 0,0 mm 1,6 km/h (1 Bft) W-NW 292 10 min 4 UV-I 793 W/m 8,0 km/h (2 Bft)
23.04.2010 15:30 15,4 C 35 % 1015,2 hPa 0,0 mm 1,6 km/h (1 Bft) N 360 10 min 4 UV-I 777 W/m 8,0 km/h (2 Bft)
23.04.2010 15:40 15,7 C 36 % 1015,2 hPa 0,0 mm 1,6 km/h (1 Bft) NW 315 10 min 4 UV-I 761 W/m 8,0 km/h (2 Bft)
23.04.2010 15:50 15,6 C 35 % 1015,1 hPa 0,0 mm 1,6 km/h (1 Bft) W-NW 292 10 min 3 UV-I 745 W/m 6,4 km/h (2 Bft)
23.04.2010 16:00 15,7 C 32 % 1015,0 hPa 0,0 mm 0,8 km/h (0 Bft) W-SW 245 10 min 3 UV-I 713 W/m 3,2 km/h (1 Bft)
23.04.2010 16:10 16,0 C 29 % 1014,9 hPa 0,0 mm 1,6 km/h (1 Bft) W-SW 247 10 min 3 UV-I 705 W/m 9,7 km/h (2 Bft)
23.04.2010 16:20 16,1 C 33 % 1015,0 hPa 0,0 mm 1,6 km/h (1 Bft) NW 315 10 min 3 UV-I 686 W/m 8,0 km/h (2 Bft)
23.04.2010 16:30 16,3 C 32 % 1015,0 hPa 0,0 mm 1,6 km/h (1 Bft) NW 315 10 min 3 UV-I 663 W/m 4,8 km/h (1 Bft)
23.04.2010 16:40 17,3 C 29 % 1014,9 hPa 0,0 mm 1,6 km/h (1 Bft) O-NO 67 10 min 3 UV-I 636 W/m 4,8 km/h (1 Bft)
23.04.2010 16:50 16,8 C 31 % 1014,8 hPa 0,0 mm 1,6 km/h (1 Bft) NO 45 10 min 2 UV-I 617 W/m 6,4 km/h (2 Bft)
23.04.2010 17:00 16,2 C 31 % 1014,8 hPa 0,0 mm 1,6 km/h (1 Bft) N 360 10 min 2 UV-I 587 W/m 8,0 km/h (2 Bft)
23.04.2010 17:10 16,3 C 32 % 1014,8 hPa 0,0 mm 1,6 km/h (1 Bft) N-NW 337 10 min 2 UV-I 561 W/m 6,4 km/h (2 Bft)
23.04.2010 17:20 16,1 C 34 % 1014,8 hPa 0,0 mm 3,2 km/h (1 Bft) W-NW 292 10 min 2 UV-I 527 W/m 14,5 km/h (3 Bft)
23.04.2010 17:30 16,2 C 33 % 1014,7 hPa 0,0 mm 3,2 km/h (1 Bft) NW 315 10 min 2 UV-I 496 W/m 6,4 km/h (2 Bft)
23.04.2010 17:40 16,2 C 33 % 1014,7 hPa 0,0 mm 1,6 km/h (1 Bft) W-NW 292 10 min 2 UV-I 462 W/m 9,7 km/h (2 Bft)
23.04.2010 17:50 16,3 C 33 % 1014,8 hPa 0,0 mm 1,6 km/h (1 Bft) N 360 10 min 1 UV-I 434 W/m 8,0 km/h (2 Bft)
23.04.2010 18:00 16,2 C 33 % 1014,8 hPa 0,0 mm 1,6 km/h (1 Bft) N-NO 22 10 min 1 UV-I 408 W/m 6,4 km/h (2 Bft)
23.04.2010 18:10 16,3 C 33 % 1014,7 hPa 0,0 mm 1,6 km/h (1 Bft) N-NO 22 10 min 1 UV-I 367 W/m 9,7 km/h (2 Bft)
23.04.2010 18:20 16,3 C 34 % 1014,7 hPa 0,0 mm 1,6 km/h (1 Bft) N 360 10 min 1 UV-I 336 W/m 8,0 km/h (2 Bft)
23.04.2010 18:30 16,1 C 36 % 1014,7 hPa 0,0 mm 3,2 km/h (1 Bft) N-NO 22 10 min 1 UV-I 318 W/m 9,7 km/h (2 Bft)
23.04.2010 18:40 15,9 C 35 % 1014,7 hPa 0,0 mm 1,6 km/h (1 Bft) N-NO 22 10 min 1 UV-I 279 W/m 8,0 km/h (2 Bft)
23.04.2010 18:50 15,7 C 36 % 1014,8 hPa 0,0 mm 3,2 km/h (1 Bft) N 360 10 min 1 UV-I 257 W/m 12,9 km/h (3 Bft)
23.04.2010 19:00 15,6 C 37 % 1014,8 hPa 0,0 mm 1,6 km/h (1 Bft) N-NO 22 10 min 1 UV-I 223 W/m 9,7 km/h (2 Bft)
23.04.2010 19:10 15,1 C 38 % 1014,8 hPa 0,0 mm 3,2 km/h (1 Bft) N-NO 22 10 min 1 UV-I 202 W/m 11,3 km/h (2 Bft)
23.04.2010 19:20 15,0 C 39 % 1014,8 hPa 0,0 mm 4,8 km/h (1 Bft) N-NO 22 10 min 1 UV-I 171 W/m 14,5 km/h (3 Bft)
23.04.2010 19:30 14,7 C 39 % 1014,9 hPa 0,0 mm 4,8 km/h (1 Bft) N-NO 22 0 min 0 UV-I 58 W/m 9,7 km/h (2 Bft)
23.04.2010 19:40 14,1 C 41 % 1015,0 hPa 0,0 mm 4,8 km/h (1 Bft) N 360 0 min 0 UV-I 46 W/m 16,1 km/h (3 Bft)
23.04.2010 19:50 13,8 C 42 % 1015,2 hPa 0,0 mm 4,8 km/h (1 Bft) N 360 0 min 0 UV-I 42 W/m 11,3 km/h (2 Bft)
23.04.2010 20:00 13,4 C 43 % 1015,3 hPa 0,0 mm 4,8 km/h (1 Bft) N-NO 22 0 min 0 UV-I 37 W/m 14,5 km/h (3 Bft)
23.04.2010 20:10 13,1 C 44 % 1015,3 hPa 0,0 mm 3,2 km/h (1 Bft) N-NO 22 10 min 0 UV-I 30 W/m 9,7 km/h (2 Bft)
23.04.2010 20:20 12,7 C 45 % 1015,3 hPa 0,0 mm 1,6 km/h (1 Bft) N-NO 22 10 min 0 UV-I 21 W/m 9,7 km/h (2 Bft)
23.04.2010 20:30 12,3 C 45 % 1015,4 hPa 0,0 mm 3,2 km/h (1 Bft) N-NO 22 0 min 0 UV-I 12 W/m 8,0 km/h (2 Bft)
23.04.2010 20:40 12,1 C 47 % 1015,5 hPa 0,0 mm 1,6 km/h (1 Bft) N-NO 22 0 min 0 UV-I 5 W/m 12,9 km/h (3 Bft)
23.04.2010 20:50 11,7 C 48 % 1015,7 hPa 0,0 mm 1,6 km/h (1 Bft) NO 45 0 min 0 UV-I 0 W/m 6,4 km/h (2 Bft)
23.04.2010 21:00 11,2 C 49 % 1015,8 hPa 0,0 mm 1,6 km/h (1 Bft) N-NO 22 0 min 0 UV-I 0 W/m 6,4 km/h (2 Bft)
23.04.2010 21:10 10,8 C 50 % 1015,9 hPa 0,0 mm 1,6 km/h (1 Bft) N-NO 22 0 min 0 UV-I 0 W/m 6,4 km/h (2 Bft)
23.04.2010 21:20 10,7 C 50 % 1016,1 hPa 0,0 mm 1,6 km/h (1 Bft) N 360 0 min 0 UV-I 0 W/m 6,4 km/h (2 Bft)
23.04.2010 21:30 10,4 C 50 % 1016,3 hPa 0,0 mm 1,6 km/h (1 Bft) N 360 0 min 0 UV-I 0 W/m 6,4 km/h (2 Bft)
23.04.2010 21:40 10,2 C 51 % 1016,4 hPa 0,0 mm 0,0 km/h (0 Bft) N-NW 337 0 min 0 UV-I 0 W/m 4,8 km/h (1 Bft)
23.04.2010 21:50 9,8 C 53 % 1016,4 hPa 0,0 mm 0,0 km/h (0 Bft) N-NW 337 0 min 0 UV-I 0 W/m 3,2 km/h (1 Bft)
23.04.2010 22:00 9,4 C 52 % 1016,5 hPa 0,0 mm 0,0 km/h (0 Bft) N 360 0 min 0 UV-I 0 W/m 4,8 km/h (1 Bft)
23.04.2010 22:10 9,1 C 53 % 1016,5 hPa 0,0 mm 0,0 km/h (0 Bft) N 360 0 min 0 UV-I 0 W/m 1,6 km/h (1 Bft)
23.04.2010 22:20 8,8 C 54 % 1016,6 hPa 0,0 mm 0,0 km/h (0 Bft) N 0 0 min 0 UV-I 0 W/m 0,0 km/h (0 Bft)
23.04.2010 22:30 8,6 C 54 % 1016,6 hPa 0,0 mm 0,0 km/h (0 Bft) N 0 0 min 0 UV-I 0 W/m 0,0 km/h (0 Bft)
23.04.2010 22:40 8,4 C 55 % 1016,7 hPa 0,0 mm 0,0 km/h (0 Bft) N 0 0 min 0 UV-I 0 W/m 0,0 km/h (0 Bft)
23.04.2010 22:50 8,1 C 59 % 1016,6 hPa 0,0 mm 0,0 km/h (0 Bft) N 0 0 min 0 UV-I 0 W/m 0,0 km/h (0 Bft)
23.04.2010 23:00 7,7 C 60 % 1016,6 hPa 0,0 mm 0,0 km/h (0 Bft) N 0 0 min 0 UV-I 0 W/m 0,0 km/h (0 Bft)
23.04.2010 23:10 7,6 C 63 % 1016,6 hPa 0,0 mm 0,0 km/h (0 Bft) N 0 0 min 0 UV-I 0 W/m 0,0 km/h (0 Bft)
23.04.2010 23:20 7,1 C 65 % 1016,7 hPa 0,0 mm 0,0 km/h (0 Bft) N 0 0 min 0 UV-I 0 W/m 0,0 km/h (0 Bft)
23.04.2010 23:30 6,7 C 64 % 1016,7 hPa 0,0 mm 0,0 km/h (0 Bft) N 0 0 min 0 UV-I 0 W/m 0,0 km/h (0 Bft)
23.04.2010 23:40 6,5 C 63 % 1016,7 hPa 0,0 mm 0,0 km/h (0 Bft) N 0 0 min 0 UV-I 0 W/m 0,0 km/h (0 Bft)
23.04.2010 23:50 6,3 C 63 % 1016,8 hPa 0,0 mm 0,0 km/h (0 Bft) N 0 0 min 0 UV-I 0 W/m 0,0 km/h (0 Bft)
_ Min-Zeit 06:00 16:10 17:30 - 00:00 - - - - - 00:00
Minimum _ -1,3 C 29 % 1014,7 hPa - 0,0 km/h (0 Bft) - - - - - 0,0 km/h (0 Bft)
_ Max-Zeit 16:40 06:40 23:50 00:00 19:20 - - 07:30 12:40 13:50 19:40
Maximum _ 17,7 C 88 % 1016,8 hPa 0,0 mm 4,8 km/h
N-NO (1 Bft)
- - 10 min 5 UV-I 861 W/m 16,1 km/h
N-NO (3 Bft)
Durchschnitt _ 8,1 C 59 % 1015,5 hPa #0,0 mm 1,0 km/h (0 Bft) N-NO - #12:20 h 3 UV-I 489 W/m 4,5 km/h (1 Bft)